Weather History for Montrose, CO

Change the Weather History Date:

Monday, February 18, 2013

  Actual Average Record
Temperature  
Mean Temperature 30 °F 33 °F  
Max Temperature 40 °F 45 °F 60 °F (2014)
Min Temperature 19 °F 22 °F 14 °F (2008)
Degree Days  
Heating Degree Days 35 32  
Month to date heating degree days 584 611  
Since 1 July heating degree days 4297 4416  
Cooling Degree Days 0 0  
Month to date cooling degree days 0 0  
Year to date cooling degree days 0 0  
Moisture  
Dew Point 10 °F    
Average Humidity 45    
Maximum Humidity 68    
Minimum Humidity 22    
Precipitation  
Precipitation 0.00 in 0.02 in 0.28 in (2003)
Month to date precipitation 0.02 0.33  
Year to date precipitation 0.59 0.98  
Sea Level Pressure  
Sea Level Pressure 30.07 in    
Wind  
Wind Speed 7 mph (NW)    
Max Wind Speed 24 mph    
Max Gust Speed 32 mph    
Visibility 10 miles    
Events      
T = Trace of Precipitation, MM = Missing Value Source: NWS Daily Summary

Daily Weather History Graph

Daily Weather History Graph

Search for Another Location

Airport:

Trip Planner

Search our weather history database for the weather conditions in past years. The results will help you decide how hot, cold, wet, or windy it might be!

Date:

Astronomy

Feb. 18, 2013 Rise Set
Actual Time 6:58 AM MST 5:53 PM MST
Civil Twilight 6:31 AM MST 6:20 PM MST
Nautical Twilight 6:00 AM MST 6:51 PM MST
Astronomical Twilight 5:29 AM MST 7:22 PM MST
Moon 11:43 AM MST (2/18) 1:38 AM MST (2/18)
Length of Visible Light 11h 49m
Length of Day
10h 55m
First Quarter, 59% of the Moon is Illuminated
Feb 18
First Quarter
Feb 25
Full
Mar 4
Last Quarter
Mar 11
New
Mar 19
First Quarter

Hourly Weather History & Observations

Time (MST) Temp. Windchill Dew Point Humidity Pressure Visibility Wind Dir Wind Speed Gust Speed Precip Events Conditions
12:53 AM 32.0 °F 20.1 °F 17.1 °F 54% 29.84 in 10.0 mi NW 19.6 mph 23.0 mph N/A   Overcast
1:53 AM 30.0 °F 19.5 °F 14.0 °F 51% 29.87 in 10.0 mi WNW 13.8 mph - N/A   Overcast
2:53 AM 28.9 °F 16.5 °F 12.9 °F 51% 29.87 in 10.0 mi West 18.4 mph - N/A   Mostly Cloudy
3:53 AM 27.0 °F 16.7 °F 12.0 °F 53% 29.93 in 10.0 mi WNW 11.5 mph - N/A   Clear
4:53 AM 26.1 °F 16.2 °F 10.9 °F 53% 29.98 in 10.0 mi NW 10.4 mph - N/A   Scattered Clouds
5:53 AM 21.9 °F 14.5 °F 12.0 °F 66% 30.05 in 10.0 mi ESE 5.8 mph - N/A   Clear
7:53 AM 23.0 °F 14.7 °F 12.9 °F 65% 30.13 in 10.0 mi SE 6.9 mph - N/A   Clear
8:53 AM 26.1 °F 19.4 °F 12.0 °F 55% 30.15 in 10.0 mi SE 5.8 mph - N/A   Clear
9:53 AM 28.9 °F - 10.0 °F 45% 30.14 in 10.0 mi Calm Calm - N/A   Clear
10:53 AM 32.0 °F - 10.0 °F 40% 30.12 in 10.0 mi Calm Calm - N/A   Clear
11:53 AM 33.1 °F - 9.0 °F 37% 30.12 in 10.0 mi Calm Calm - N/A   Clear
12:53 PM 36.0 °F 33.3 °F 6.1 °F 29% 30.09 in 10.0 mi Variable 3.5 mph - N/A   Clear
1:53 PM 37.9 °F 33.5 °F 3.0 °F 23% 30.08 in 10.0 mi North 5.8 mph - N/A   Clear
2:53 PM 39.0 °F 34.8 °F 3.0 °F 22% 30.07 in 10.0 mi NW 5.8 mph - N/A   Clear
3:53 PM 39.0 °F 34.8 °F 3.0 °F 22% 30.08 in 10.0 mi NNW 5.8 mph - N/A   Clear
4:53 PM 39.0 °F 34.0 °F 3.9 °F 23% 30.08 in 10.0 mi North 6.9 mph - N/A   Clear
5:53 PM 35.1 °F 31.0 °F 7.0 °F 31% 30.12 in 10.0 mi NNW 4.6 mph - N/A   Clear
6:53 PM 32.0 °F 28.7 °F 8.1 °F 37% 30.14 in 10.0 mi NW 3.5 mph - N/A   Clear
7:53 PM 28.0 °F 20.8 °F 10.9 °F 49% 30.16 in 10.0 mi SSE 6.9 mph - N/A   Clear
8:53 PM 27.0 °F 18.7 °F 12.9 °F 56% 30.16 in 10.0 mi ESE 8.1 mph - N/A   Clear
9:53 PM 25.0 °F 17.1 °F 12.0 °F 58% 30.15 in 10.0 mi SSE 6.9 mph - N/A   Clear
10:53 PM 25.0 °F 16.3 °F 10.0 °F 53% 30.13 in 10.0 mi SE 8.1 mph - N/A   Clear
11:53 PM 23.0 °F 13.9 °F 9.0 °F 55% 30.13 in 10.0 mi SE 8.1 mph - N/A   Clear